Regional Weather Roundup
Issued by NWS Pendleton, OR

Home | Current Version | Previous Version | Text Only | Print | Product List | Glossary On
Versions: 1 2 3 4 5 6 7 8 9 10 11 12 13 14 15 16 17 18 19 20 21 22 23 24 25 26 27 28 29 30 31 32 33 34 35 36 37 38 39 40 41 42 43 44 45 46 47 48 49 50
000
ASUS46 KPDT 290010
RWRPDT
PENDLETON REGIONAL WEATHER ROUNDUP
NATIONAL WEATHER SERVICE PENDLETON OREGON
500 PM PDT THU APR 28 2016

NOTE: FAIR INDICATES FEW OR NO CLOUDS BELOW 12,000 FEET WITH NO
SIGNIFICANT WEATHER AND/OR OBSTRUCTIONS TO VISIBILITY.

# INDICATES UNOFFICIAL STATION AND DATA

WAZ520-290110-
EAST SLOPES OF WASHINGTON CASCADES

CITY            SKY/WX      TMP DP  RH  WIND    PRES   REMARKS
#CLE ELUM HS    N/A         55  40  57  NW9     29.96
#CLE ELUM 2NW   N/A         52  39  61  SW6     N/A
#CLE ELUM LAKE  N/A         54  42  64  W3      30.00S
#GLENWOOD       N/A         62  45  54  SW3     29.97
#MANASTASH CYN  N/A         60  39  46  CALM    29.94S
#NELSON 3SW     N/A         52  41  66  S1      30.19
#NILE           N/A         57  41  55  W7      29.25
#TEANAWAY 4NE   N/A         56  44  64  W5      N/A
#TROUT LAKE 1NE N/A         58  41  53  W12     30.01
#TROUT LAKE 1E  N/A         59  42  53  CALM    29.98
$$

WAZ521-290110-
SIMCOE HIGHLANDS

CITY            SKY/WX      TMP DP  RH  WIND    PRES   REMARKS
#BICKLETON HS   N/A         59  31  34  W12     N/A
#CENTERVILLE 1SWN/A         60  41  49  W20     29.93
#GOLDENDALE 1NE N/A         62  28  27  SW12    N/A
#GOODNOE HILLS  N/A         67  38  34  SW26    29.86S
#LYLE 6NE       N/A         58  42  55  W13     29.98
$$

WAZ026-290110-
KITTITAS VALLEY

CITY            SKY/WX      TMP DP  RH  WIND    PRES   REMARKS
ELLENSBURG AP   CLOUDY      65  42  43  NW24G31 29.94
6HR MIN TEMP:   61; 6HR MAX TEMP:   72;

YTC-OPS AREA    MOCLDY      61  35  38  SW8     29.93
6HR MIN TEMP:   55; 6HR MAX TEMP:   64;

#ELLENSBURG CWU N/A         64  42  45  N17     29.87
#ELLENSBURG 3NE N/A         61  44  53  N15     29.93
#ELLENSBURG     N/A         63  43  48  W9      N/A
#ELLENSBURG 1E  N/A         64  N/A N/A CALM    N/A
#KITTITAS 3S    N/A         63  46  54  NW9     29.91
#THORP 6N       N/A         53  41  64  SW24G38 29.99
$$

WAZ027-290110-
YAKIMA VALLEY

CITY            SKY/WX      TMP DP  RH  WIND    PRES   REMARKS
YAKIMA AIRPORT  CLOUDY      73  36  26  E5      29.91
6HR MIN TEMP:   66; 6HR MAX TEMP:   75;

YAKIMA-VAGABOND MOCLDY      68  37  32  NW7     29.90
6HR MIN TEMP:   61; 6HR MAX TEMP:   71;

#DONALD 2NE     N/A         79   8   6  SE1     28.76
#GRANDVIEW      N/A         70  34  26  W2      29.92
#MABTON         N/A         71  41  34  NW1     29.91
#NACHES 2SW     N/A         62  46  56  W7      29.94
#TERRACE HTS    N/A         68  41  37  CALM    29.87
#TOPPENISH      N/A         70  38  31  CALM    29.81
#WEST VALLEY    N/A         70  40  34  E1      29.88
#W YAKIMA       N/A         68  43  40  NW3     29.91S
#WHITE SWAN 5E  N/A         73  44  35  S7      29.90
#WILEY CITY 3W  N/A         70  32  24  CALM    29.89
$$

WAZ028-290110-
LOWER COLUMBIA BASIN...WASHINGTON

CITY            SKY/WX      TMP DP  RH  WIND    PRES   REMARKS
HANFORD         PTCLDY      74  34  23  NW3     29.89
PASCO           SUNNY       73  39  29  VRB3    29.91
6HR MIN TEMP:   61; 6HR MAX TEMP:   74;

PROSSER AWOS    N/A         72  39  30  W2      29.93
RICHLAND AWOS   SUNNY       75  40  28  S7      29.90
#BENTON CITY    N/A         71  41  34  S1      29.80
#CONNELL 5N     N/A         70  46  42  SW3     29.91
#CONNELL 5NW    N/A         68  47  47  CALM    29.87
#ELTOPIA 6NW    N/A         67  47  49  CALM    28.89
#KAHLOTUS       N/A         67  44  43  W5      29.90
#KENNEWICK 3S   N/A         73  44  35  N1      29.91
#PATERSON       N/A         71  40  32  SW6     29.89
#SAGEMOOR 2W    N/A         70  46  42  SE1     29.75
#TOUCHET 2S     N/A         70  49  47  N1      29.90
#WEST PASCO     N/A         71  49  46  CALM    29.97
$$

WAZ029-290110-
FOOTHILLS OF THE BLUES...WASHINGTON

CITY            SKY/WX      TMP DP  RH  WIND    PRES   REMARKS
WALLA WALLA AP  SUNNY       66  40  38  N3      29.93
6HR MIN TEMP:   54; 6HR MAX TEMP:   66;

#CLYDE 6NW      N/A         66  42  42  W6      29.90
#DAYTON SCHOOL  N/A         64  37  37  E2      29.95
#LOWDEN 2SE     N/A         70  45  41  W1      29.89
#PLEASANT VIEW 1N/A         65  42  43  SE5     29.95
#PRESCOTT       N/A         68  46  45  SW2     29.91
#SUDBURY        N/A         57  N/A N/A CALM    N/A
#WHITMAN COLLEGEN/A         67  43  42  N7      29.98
#WAITSBURG 5S   N/A         63  42  46  SW6     30.02
#WAITSBURG 8N   N/A         66  17  15  S10     29.76S
#WALLA WALLA U  N/A         68  43  40  N1      29.91
#WHITMAN MISSIONN/A         69  46  44  CALM    29.93
$$

WAZ030-290110-
BLUE MOUNTAINS...WASHINGTON

CITY            SKY/WX      TMP DP  RH  WIND    PRES   REMARKS
#DIXIE 5SE      N/A         56  41  57  W6      29.89
$$

ORZ009-041-WAZ024-290110-
COLUMBIA RIVER GORGE

CITY            SKY/WX      TMP DP  RH  WIND    PRES   REMARKS
HOOD RIVER AP   SUNNY       63  41  44  W9      30.05
THE DALLES AP   SUNNY       67  40  37  NW20G25 29.99
6HR MIN TEMP:   62; 6HR MAX TEMP:   70;

#ARLINGTON AIRPON/A         68  40  36  W16     29.94S
#CELILO DOT     N/A         68  43  40  SW10    N/A
#MARYHILL 2W    N/A         64  41  43  W10     N/A
#MOSIER 1S      N/A         62  30  30  W8      30.00S
#MURDOCK        N/A         62  43  50  W24G33  29.96S
#RUFUS DOT      N/A         68  39  35  W18     N/A

$$

ORZ510-290110-
NORTH CENTRAL OREGON

CITY            SKY/WX      TMP DP  RH  WIND    PRES   REMARKS
#ANTELOPE       N/A         58  38  47  W6      29.88
#CHENOWITH 1W   N/A         57  39  51  W31     N/A
#COW CYN RST AREN/A         57  34  42  W8      N/A
#DUFUR 9E       N/A         56  39  53  W20G32  30.04
#GRASS VALLEY   N/A         58  38  47  W2      N/A
#GRASS VALLEY 1SN/A         60  41  49  N14     29.94
#KENT DOT       N/A         60  31  33  N8      N/A
#MAUPIN SCHOOL  N/A         63  40  43  W12     30.02
#MORO SCHOOL    N/A         61  45  56  NW15G24 29.99
#SHANIKO 5WSW   N/A         55  29  37  W8      N/A
#SHANIKO 4NW    N/A         53  35  50  W8      30.01
#TYGH VALLEY 2NEN/A         66  42  42  SW10    29.97
#WAPANITIA AIRPON/A         59  40  49  W14     30.01
#WASCO DOT      N/A         65  39  38  W16     N/A
#WASCO 5NE      N/A         63  41  44  SW9     29.96
$$

ORZ511-290110-
CENTRAL OREGON

CITY            SKY/WX      TMP DP  RH  WIND    PRES   REMARKS
BEND AIRPORT    MOCLDY      57  32  38  N12     30.00
MADRAS AIRPORT  CLOUDY      59  36  42  N10     30.02
PRINEVILLE AP   CLOUDY      57  34  42  N9      30.01S
REDMOND AIRPORT CLOUDY      58  34  40  NW10    30.00
6HR MIN TEMP:   51; 6HR MAX TEMP:   61;

#ASHWOOD SCHOOL N/A         59  35  40  CALM    29.96
#BEND 1SW       N/A         54  34  47  N2      N/A
#BEND-AWBREY    N/A         60  38  44  NW5     30.00S
#BEND-KIM LN    N/A         59  37  44  N2      29.98
#CULVER         N/A         58  37  45  N7      29.95
#LAKE BILLY CHINN/A         57  N/A N/A N9      30.06F
#POWELL BUTTE   N/A         59  38  45  N2      29.88S
#PRINEVILLE 3N  N/A         58  38  47  NE5     29.97S
#WARM SPRINGS   N/A         63  40  43  S13     29.97

$$


ORZ509-290110-
EAST SLOPES OF OREGON CASCADES

CITY            SKY/WX      TMP DP  RH  WIND    PRES   REMARKS
SISTERS AWOS    N/A         54  34  47  W18G31  30.01
#BLUE BOX PASS  N/A         41  N/A N/A NW3     N/A
#BLACK BUTTE RNCN/A         52  37  56  SE1     30.05F
#CAMP SHERMAN   N/A         55  35  47  N3      30.14
#LA PINE 4NW    N/A         54  35  48  N2      30.06
#LAVA BUTTE DOT N/A         55  26  32  CALM    N/A
#SISTERS AIRPOR N/A         54  41  61  N8      30.17
#SISTERS ODOT   N/A         54  N/A N/A S8      N/A
#SISTERS 3N     N/A         54  32  43  W3      30.03S
#SUNRIVER       N/A         54  34  47  E1      30.06S
#TUMALO 3W      N/A         54  34  47  N12     29.89
#WANOGA BUTTE D N/A         46  29  51  NE3     N/A

$$

ORZ044-290110-
LOWER COLUMBIA BASIN...OREGON

CITY            SKY/WX      TMP DP  RH  WIND    PRES   REMARKS
HERMISTON       SUNNY       70  39  32  SW3     29.91
6HR MIN TEMP:   57; 6HR MAX TEMP:   73;

#BOARDMAN SCHOOLN/A         73  41  31  W3      29.91
#BOARDMAN 8SW   N/A         71  41  34  W3      29.91
#ECHO 8SW       N/A         70  40  34  W1      29.93
#I-84 EX 198 DOTN/A         66  41  40  E8      N/A
#UMATILLA SCHOOLN/A         74  49  41  N1      29.94
#UMATILLA       N/A         73  39  29  CALM    29.84
$$

ORZ507-290110-
NORTHERN FOOTHILLS OF THE BLUES

CITY            SKY/WX      TMP DP  RH  WIND    PRES   REMARKS
PENDLETON AIRPT SUNNY       66  36  33  N8      29.93
6HR MIN TEMP:   56; 6HR MAX TEMP:   67;

#ADAMS 3WNW     N/A         65  41  41  W6      29.93
#ATHENA         N/A         64  41  43  W2      29.95
#CAYUSE         N/A         64  42  45  W3      29.92
#HELIX SCHOOL   N/A         65  41  41  CALM    29.93
#HELIX 3N       N/A         63  44  50  NW2     29.91
#HELIX 6SW      N/A         64  42  45  W7      29.94
#HOLDMAN 5SE    N/A         65  43  45  W1      29.93
#HOLDMAN 6E     N/A         65  41  41  E5      29.74
#M-F FERNDALE   N/A         79  41  26  CALM    29.92
#M-F GROVE ELEM N/A         67  38  34  CALM    29.91
#M-FREEWATER 5SEN/A         67  46  47  SW1     29.93
#PENDLETON DNTN N/A         70  40  34  NW6     29.95
#PDT AQUATIC CTRN/A         69  40  35  W5      29.96
#PDT SUNRIDGE   N/A         68  40  36  NW3     29.94
#PENDLETON 7NW  N/A         67  46  47  CALM    27.45
#PILOT ROCK     N/A         65  40  40  W2      29.94
#TUTUILLA       N/A         64  44  48  CALM    29.93
#UMAPINE 2E     N/A         69  46  44  N2      29.90
#WESTON SCHOOL  N/A         63  37  38  N2      29.84

$$

ORZ508-290110-
SOUTHERN FOOTHILLS OF THE BLUES

CITY            SKY/WX      TMP DP  RH  WIND    PRES   REMARKS
#AJAX           N/A         61  34  36  SW9     27.73
#CONDON SCHOOL  N/A         59  39  47  W8      29.94
#CONDON 5W      N/A         55  36  49  W9      29.96
#FOSSIL SCHOOL  N/A         59  37  44  W2      29.93
#HEPPNER EOC    N/A         64  37  37  W5      29.88
#HEPPNER 4NE    N/A         59  38  45  NW7     29.95
#LEXINGTON 2SE  N/A         69  38  32  W10     29.90
#MIKKALO        N/A         65  34  31  NW16G24 30.06
#RUGGS 5NE      N/A         61  36  39  W8      30.14
#RUGGS 2SW      N/A         59  37  44  N5      29.97

$$

ORZ502-503-290110-
BLUE MOUNTAINS

CITY            SKY/WX      TMP DP  RH  WIND    PRES   REMARKS
MEACHAM         PTCLDY      54  37  52  VRB6    29.97
6HR MIN TEMP:   44; 6HR MAX TEMP:   56;

#BATTLE MTN DOT N/A         55  43  64  NW3     N/A
#GREENHORN 9SW  N/A         57  40  53  W3      26.14
#HARDMAN 10S    N/A         61  34  36  N5      30.22
#HEPPNER 15SE   N/A         53  37  54  W2      25.52S
#LADD CYN SMT   N/A         55  34  45  NE8     N/A
#LADD CREEK ODOTN/A         57  39  51  NE6     N/A
#LONG CREEK HS  N/A         54  40  59  CALM    N/A
#N POWDER DOT   N/A         56  40  55  N16     N/A
#PIKES PEAK     N/A         53  41  64  SW1     27.99
#TOLLGATE       N/A         47  38  71  S2      29.84
#TROY SCHOOL    N/A         67  43  42  CALM    29.71
#UKIAH          N/A         57  41  55  N6      29.87
#WESTON 4E      N/A         59  42  53  CALM    29.93
$$

ORZ505-290110-
JOHN DAY BASIN

CITY            SKY/WX      TMP DP  RH  WIND    PRES   REMARKS
JOHN DAY        MOCLDY      57  36  45  N8      29.95
#DAYVILLE SCHOOLN/A         60  36  41  N7      29.93
#MITCHELL       N/A         57  40  53  CALM    30.14
#MITCHELL 8NW   N/A         55  35  47  CALM    30.19
#MONUMENT HS    N/A         62  35  36  W7      29.92
#MT. VERNON 5SE N/A         55  36  49  E1      29.91
#SPRAY SCHOOL   N/A         63  N/A N/A CALM    N/A
#WINLOCK        N/A         58  37  45  CALM    29.95S
$$

ORZ506-290110-
OCHOCO AND JOHN DAY HIGHLANDS

CITY            SKY/WX      TMP DP  RH  WIND    PRES   REMARKS
#HORSE RIDGE DO N/A         55  29  37  NW8     N/A
#KEYES SMT DOT  N/A         51  35  54  NW8     N/A
#PAULINA SCHOOL N/A         56  34  43  VRB7    29.21
#PINE MTN OBS   N/A         43  32  65  N6      N/A
#PRAIRIE CITY   N/A         60  38  44  N2      29.91
#SENECA         N/A         53  N/A N/A N7      N/A
#SENECA 9NW     N/A         52  35  52  E1      29.92
$$

ORZ049-290110-
GRANDE RONDE VALLEY

CITY            SKY/WX      TMP DP  RH  WIND    PRES   REMARKS
LA GRANDE       CLOUDY      59  36  42  SW3     29.92
#COVE           N/A         60  49  67  N5      29.95
#COVE SCHOOL    N/A         60  44  55  CALM    29.95
#COVE 6NW       N/A         39  35  85  CALM    29.63
#ELGIN 3N       N/A         61  36  39  SW2     29.89S
#ELGIN 1E       N/A         63  41  44  CALM    N/A
#IMBLER SCHOOL  N/A         59  40  49  NW13    29.88
#ISLAND CITY 4N N/A         59  47  64  CALM    30.11
#LADD CYN DOT   N/A         58  40  51  E8      N/A
#UNION 1S       N/A         58  42  55  CALM    29.80
$$

ORZ050-290110-
WALLOWA COUNTY

CITY            SKY/WX      TMP DP  RH  WIND    PRES   REMARKS
JOSEPH AIRPORT  CLOUDY      48  41  77  SW3     29.95
#ENTERPRISE AP  N/A         49  29  46  CALM    29.88
#ENTERPRISE HS  N/A         51  41  68  NW2     29.94
#IMNAHA SCHOOL  N/A         61  42  50  VRB5    29.90
#IMNAHA 10S     N/A         57  40  53  NE2     29.91
#JOSEPH 3N      N/A         50  38  63  W6      29.96
#JOSEPH 3W      N/A         44  43  96  SW1     29.79S
#LOSTINE        N/A         51  44  77  W3      29.72
#MT HOWARD 8000 N/A         32  31  96  NW5     29.96
#PROMISE 1S     N/A         54  40  59  W2      30.00
#WALLOWA SCHOOL N/A         57  41  55  CALM    29.90



$$



USA.gov is the U.S. government's official web portal to all federal, state and local government web resources and services.